Regional Weather Roundup
Issued by NWS Northern Indiana

Home | Current Version | Previous Version | Text Only | Print | Product List | Glossary On
Versions: 1 2 3 4 5 6 7 8 9 10 11 12 13 14 15 16 17 18 19 20 21 22 23 24 25 26 27 28 29 30 31 32 33 34 35 36 37 38 39 40 41 42 43 44 45 46 47 48 49 50
000
ASUS43 KIWX 201810
RWRIWX

KIWX WEATHER ROUNDUP
NATIONAL WEATHER SERVICE NORTHERN INDIANA
200 PM EDT WED AUG 20 2014

NOTE: "FAIR" INDICATES FEW OR NO CLOUDS BELOW 12,000 FEET WITH NO
SIGNIFICANT WEATHER AND/OR OBSTRUCTIONS TO VISIBILITY.

* THESE STATIONS ARE NOT UNDER NWS QUALITY CONTROL. THEY ALSO MAY NOT
  REPORT WEATHER SUCH AS PRECIPITATION OR FOG.

INZ001>027-201900-
NORTHERN INDIANA

CITY           SKY/WX    TMP DP  RH WIND       PRES   REMARKS
GARY*          PTSUNNY   84  64  51 SW12      29.93R
VALPARAISO     MOSUNNY   83  65  54 W17G24    29.94S
6HR MIN TEMP:  65; 6HR MAX TEMP:  83;

MICHIGAN CITY* MOSUNNY   81  64  57 SW5       29.93S
LAPORTE*       PTSUNNY   81  65  57 SW10      29.94S
6HR MIN TEMP:  64; 6HR MAX TEMP:  82;

KNOX*          MOSUNNY   82  66  58 W13G18    29.93S
6HR MIN TEMP:  41; 6HR MAX TEMP:  86;

SOUTH BEND     MOSUNNY   77 N/A N/A W9        29.94R
GOSHEN         PTSUNNY   84  65  52 W15       29.93R
6HR MIN TEMP:  66; 6HR MAX TEMP:  84;

MONTICELLO*    PTSUNNY   81  67  62 W10G16    29.96R
6HR MIN TEMP:  64; 6HR MAX TEMP:  81;

LOGANSPORT*    PTSUNNY   82  61  47 W16       29.97R
ROCHESTER*     MOSUNNY   84  64  51 W15G21    29.96R
WARSAW*        PTSUNNY   81  64  57 W12G17    29.94S
ANGOLA*        PTSUNNY   82  66  57 SW14      29.93R
FORT WAYNE     PTSUNNY   82  68  62 W13G20    29.95R
6HR MIN TEMP:  66; 6HR MAX TEMP:  82;

HUNTINGTON*    PTSUNNY   82  65  56 W10G18    29.95R
6HR MIN TEMP:  66; 6HR MAX TEMP:  82;

PERU/GRISSOM   MOSUNNY   83  68  60 W12       29.97R
6HR MIN TEMP:  66; 6HR MAX TEMP:  83; 6HR PCP:  0.01;

MARION*        MOSUNNY   82  64  54 NW9       29.97R
6HR MIN TEMP:  40; 6HR MAX TEMP:  87;


$$
INZ028>050-201900-
CENTRAL INDIANA

CITY           SKY/WX    TMP DP  RH WIND       PRES   REMARKS
LAFAYETTE      CLOUDY    80  69  69 SW8       29.97R
6HR MIN TEMP:  61; 6HR MAX TEMP:  82;

KOKOMO*        MOSUNNY   82  64  54 W17       29.97R
6HR MIN TEMP:  66; 6HR MAX TEMP:  82;

MUNCIE*        MOSUNNY   83  64  52 W14       29.96R
6HR MIN TEMP:  66; 6HR MAX TEMP:  83;

INDIANAPOLIS   CLOUDY    81  68  64 W16       29.99R THUNDER
6HR MIN TEMP:  67; 6HR MAX TEMP:  83;


$$
MIZ043>046-050>051-056>058-064>065-071>073-077>080-201900-
SOUTHWEST LOWER MICHIGAN

CITY           SKY/WX    TMP DP  RH WIND       PRES   REMARKS
BATTLE CREEK   PTSUNNY   79  64  60 W12       29.92R
6HR MIN TEMP:  66; 6HR MAX TEMP:  80;

BENTON HARBOR  PTSUNNY   79  64  60 W12       29.93R
6HR MIN TEMP:  67; 6HR MAX TEMP:  79;

COLDWATER*     PTSUNNY   82  65  57 W10       29.92R
6HR MIN TEMP:  66; 6HR MAX TEMP:  83;

HILLSDALE*     MOSUNNY   81  64  57 W10       29.93R
6HR MIN TEMP:  67; 6HR MAX TEMP:  82;

HOLLAND        SUNNY     78  66  66 W9        29.91R
6HR MIN TEMP:  66; 6HR MAX TEMP:  78;

GRAND RAPIDS   MOSUNNY   78  65  63 W14       29.90R
6HR MIN TEMP:  67; 6HR MAX TEMP:  81;

KALAMAZOO      CLOUDY    81  62  52 W14G21    29.92R
6HR MIN TEMP:  67; 6HR MAX TEMP:  82;

STURGIS*       MOSUNNY   81  64  57 W8        29.92R
THREE RIVERS*  CLOUDY    83  66  57 W8G16     29.92R
6HR MIN TEMP:  66; 6HR MAX TEMP:  83;


$$
OHZ001>008-015>018-024>025-201900-
NORTHWEST OHIO

CITY           SKY/WX    TMP DP  RH WIND       PRES   REMARKS
WAUSEON*       PTSUNNY   81  66  61 W14G20    29.91R
DEFIANCE       PTSUNNY   81  65  58 VRB7      29.92R
6HR MIN TEMP:  67; 6HR MAX TEMP:  82;

FINDLAY        MOSUNNY   82  66  58 W13       29.91S
6HR MIN TEMP:  72; 6HR MAX TEMP:  83;

TOLEDO EXPRESS CLOUDY    81  64  56 W15       29.89S
6HR MIN TEMP:  69; 6HR MAX TEMP:  82;

TOLEDO METCALF PTSUNNY   84  65  52 W13       29.89S
6HR MIN TEMP:  70; 6HR MAX TEMP:  84;

LIMA           MOSUNNY   83  68  60 SW15      29.94R
6HR MIN TEMP:  69; 6HR MAX TEMP:  83;


$$
&&


USA.gov is the U.S. government's official web portal to all federal, state and local government web resources and services.